Zaliv Vostok — A8RM6 — position and weather

sailwx.info

Track history (hours):
 
Tides and Currents Weather Stations Pressure Air Temp Water Temp Dewpoint Dewpoint Depression Visibility Wind Speed Wind Dir Waves Ship Positions

Zaliv Vostok

Last reported at 2014-Oct-21 14:34 UTC. Time now 2014-Oct-21 15:19 UTC.
Position N 57°59' E 009°58'.

Length 243 m; draft 8.2 m.

Type: Tanker. MMSI: 636014127.

Date/timePositionNaut miles runAvg speedWind from/ knotsBaromVisibWave heightAir tempDewpointWater temp
2014-Oct-21 14:34N 57°59' E 009°58'1110.8
2014-Oct-21 13:32N 57°58' E 009°37'1311.9
2014-Oct-21 12:28N 57°50' E 009°18'1415.1
2014-Oct-21 11:32N 57°40' E 008°60'1313.2
2014-Oct-21 10:33N 57°33' E 008°40'1311.1
2014-Oct-21 09:22N 57°25' E 008°20'193 9.6
2014-Oct-20 13:20N 54°35' E 005°38'7 8.9
2014-Oct-20 12:33N 54°29' E 005°33'9 8.8
2014-Oct-20 11:32N 54°21' E 005°25'9 9.4
2014-Oct-20 10:33N 54°14' E 005°14'10 9.6
2014-Oct-20 09:33N 54°08' E 005°01'10 9.7
2014-Oct-20 08:33N 54°02' E 004°49'163 9.6
2014-Oct-19 15:33N 51°42' E 002°31'1010.2
2014-Oct-19 14:33N 51°34' E 002°21'1110.6
2014-Oct-19 13:33N 51°25' E 002°11'1010.4
2014-Oct-19 12:33N 51°15' E 002°06'1111.4
2014-Oct-19 11:34N 51°09' E 001°52'1211.8
2014-Oct-19 10:33N 51°00' E 001°38'1212.2
2014-Oct-19 09:33N 50°51' E 001°26'9410.4
2014-Oct-19 00:33N 49°51' W 000°27'1010.2
2014-Oct-18 23:33N 49°42' W 000°19'1211.7
2014-Oct-18 22:33N 49°34' W 000°07'1110.8
2014-Oct-18 21:33N 49°28' E 000°08'0 0.1
2014-Oct-18 20:33N 49°28' E 000°08'0 0.0
2014-Oct-18 19:32N 49°28' E 000°08'0 0.0
2014-Oct-18 18:32N 49°28' E 000°08'0 0.0
2014-Oct-18 17:32N 49°28' E 000°08'0 0.0
2014-Oct-18 16:31N 49°28' E 000°08'0 0.0
2014-Oct-18 15:31N 49°28' E 000°08'0 0.0
2014-Oct-18 14:33N 49°28' E 000°08'0 0.0
2014-Oct-18 13:33N 49°28' E 000°08'0 0.0
2014-Oct-18 12:32N 49°28' E 000°08'0 0.0
2014-Oct-18 11:32N 49°28' E 000°08'0 0.0
2014-Oct-18 10:32N 49°28' E 000°08'0 0.0
2014-Oct-18 09:31N 49°28' E 000°08'0 0.0
2014-Oct-18 08:31N 49°28' E 000°08'0 0.0
2014-Oct-18 07:33N 49°28' E 000°08'0 0.0
2014-Oct-18 06:33N 49°28' E 000°08'0 0.0
2014-Oct-18 05:32N 49°28' E 000°08'0 0.0
2014-Oct-18 04:32N 49°28' E 000°08'0 0.0
2014-Oct-18 03:31N 49°28' E 000°08'0 0.0
2014-Oct-18 02:31N 49°28' E 000°08'0 0.0
2014-Oct-18 01:31N 49°28' E 000°08'0 0.0
2014-Oct-18 00:33N 49°28' E 000°08'0 0.0
2014-Oct-17 23:33N 49°28' E 000°08'0 0.0
2014-Oct-17 22:32N 49°28' E 000°08'0 0.0
2014-Oct-17 21:32N 49°28' E 000°08'0 0.0
2014-Oct-17 20:31N 49°28' E 000°08'0 0.0
2014-Oct-17 19:31N 49°28' E 000°08'0 0.0
2014-Oct-17 18:31N 49°28' E 000°08'0 0.0
2014-Oct-17 17:33N 49°28' E 000°08'0 0.0
2014-Oct-17 16:33N 49°28' E 000°08'0 0.0
2014-Oct-17 15:32N 49°28' E 000°08'0 0.0
2014-Oct-17 14:32N 49°28' E 000°08'0 0.0
2014-Oct-17 13:28N 49°28' E 000°08'0 0.0
2014-Oct-17 12:31N 49°28' E 000°08'0 0.0
2014-Oct-17 11:31N 49°28' E 000°08'0 0.0
2014-Oct-17 10:33N 49°28' E 000°08'0 0.0
2014-Oct-17 09:33N 49°28' E 000°08'0 0.0
2014-Oct-17 08:32N 49°28' E 000°08'0 0.0
2014-Oct-17 07:32N 49°28' E 000°08'0 0.0
2014-Oct-17 06:31N 49°28' E 000°08'0 0.0
2014-Oct-17 05:31N 49°28' E 000°08'0 0.0
2014-Oct-17 04:31N 49°28' E 000°08'0 0.0
2014-Oct-17 03:33N 49°28' E 000°08'0 0.0
2014-Oct-17 02:33N 49°28' E 000°08'0 0.0
2014-Oct-17 01:32N 49°28' E 000°08'0 0.0
2014-Oct-17 00:32N 49°28' E 000°08'0 0.0
2014-Oct-16 23:31N 49°28' E 000°08'0 0.0
2014-Oct-16 22:31N 49°28' E 000°08'0 0.0
2014-Oct-16 21:31N 49°28' E 000°08'0 0.0
2014-Oct-16 20:33N 49°28' E 000°08'0 0.0
2014-Oct-16 19:33N 49°28' E 000°08'0 0.0
2014-Oct-16 18:32N 49°28' E 000°08'0 0.0
2014-Oct-16 17:32N 49°28' E 000°08'0 0.0
2014-Oct-16 16:31N 49°28' E 000°08'0 0.0
2014-Oct-16 15:31N 49°28' E 000°08'0 0.0
2014-Oct-16 14:33N 49°28' E 000°08'0 0.0
2014-Oct-16 13:30N 49°28' E 000°08'0 0.0
2014-Oct-16 12:33N 49°28' E 000°08'0 0.0
2014-Oct-16 11:32N 49°28' E 000°08'0 0.0
2014-Oct-16 10:32N 49°28' E 000°08'0 0.0
2014-Oct-16 09:31N 49°28' E 000°08'0 0.0
2014-Oct-16 08:31N 49°28' E 000°08'0 0.0
2014-Oct-16 07:30N 49°28' E 000°08'0 0.0
2014-Oct-16 06:33N 49°28' E 000°08'0 0.0
2014-Oct-16 05:33N 49°28' E 000°08'0 0.0
2014-Oct-16 04:32N 49°28' E 000°08'0 0.0
2014-Oct-16 03:32N 49°28' E 000°08'0 0.0
2014-Oct-16 02:31N 49°28' E 000°08'0 0.0
2014-Oct-16 01:31N 49°28' E 000°08'0 0.0
2014-Oct-16 00:33N 49°28' E 000°08'0 0.0
2014-Oct-15 23:33N 49°28' E 000°08'0 0.0
2014-Oct-15 22:33N 49°28' E 000°08'0 0.0
2014-Oct-15 21:32N 49°28' E 000°08'0 0.0
2014-Oct-15 20:32N 49°28' E 000°08'0 0.0
2014-Oct-15 19:31N 49°28' E 000°08'0 0.0
2014-Oct-15 18:31N 49°28' E 000°08'0 0.0
2014-Oct-15 17:33N 49°28' E 000°08'0 0.0
2014-Oct-15 16:33N 49°28' E 000°08'0 0.0
2014-Oct-15 15:33N 49°28' E 000°08'0 0.0
2014-Oct-15 14:32N 49°28' E 000°08'0 0.0
2014-Oct-15 13:34N 49°28' E 000°08'4 4.0
2014-Oct-15 12:34N 49°30' E 000°02'1010.0
2014-Oct-15 11:33N 49°34' W 000°12'4 4.4
2014-Oct-15 10:34N 49°37' W 000°17'0 0.2
2014-Oct-15 09:29N 49°37' W 000°17'0 0.0
2014-Oct-15 08:22N 49°37' W 000°17'0 0.0
2014-Oct-15 07:31N 49°37' W 000°17'0 0.0
2014-Oct-15 06:31N 49°37' W 000°17'0 0.0
2014-Oct-15 05:27N 49°37' W 000°17'0 0.0
2014-Oct-15 04:33N 49°37' W 000°17'0 0.0
2014-Oct-15 03:32N 49°37' W 000°17'0 0.1
2014-Oct-15 02:32N 49°37' W 000°17'0 0.0
2014-Oct-15 01:32N 49°37' W 000°17'0 0.0
2014-Oct-15 00:28N 49°37' W 000°17'0 0.0
2014-Oct-14 23:28N 49°37' W 000°17'0 0.0
2014-Oct-14 22:33N 49°37' W 000°17'0 0.0
2014-Oct-14 21:33N 49°37' W 000°17'0 0.1
2014-Oct-14 20:32N 49°37' W 000°17'0 0.0
2014-Oct-14 19:32N 49°37' W 000°17'0 0.0
2014-Oct-14 18:32N 49°37' W 000°17'0 0.1
2014-Oct-14 17:31N 49°37' W 000°17'0 0.0
2014-Oct-14 16:31N 49°37' W 000°17'0 0.1
2014-Oct-14 15:33N 49°37' W 000°17'0 0.0
2014-Oct-14 14:27N 49°37' W 000°17'0 0.0
2014-Oct-14 13:32N 49°37' W 000°17'0 0.0
2014-Oct-14 12:26N 49°37' W 000°17'0 0.0
2014-Oct-14 11:25N 49°37' W 000°17'0 0.1
2014-Oct-14 10:31N 49°37' W 000°17'0 0.0
2014-Oct-14 09:28N 49°37' W 000°17'0 0.0
2014-Oct-14 08:33N 49°37' W 000°17'0 0.1
2014-Oct-14 07:33N 49°37' W 000°17'0 0.1
2014-Oct-14 06:32N 49°37' W 000°17'0 0.0
2014-Oct-14 05:32N 49°37' W 000°17'0 0.1
2014-Oct-14 04:16N 49°37' W 000°17'0 0.0
2014-Oct-14 03:28N 49°37' W 000°17'0 0.0
2014-Oct-14 02:31N 49°37' W 000°17'0 0.0
2014-Oct-14 01:33N 49°37' W 000°17'0 0.0
2014-Oct-14 00:33N 49°37' W 000°17'0 0.0
2014-Oct-13 23:26N 49°37' W 000°17'0 0.1
2014-Oct-13 22:32N 49°37' W 000°17'0 0.0
2014-Oct-13 21:31N 49°37' W 000°17'0 0.0
2014-Oct-13 20:31N 49°37' W 000°17'0 0.0
2014-Oct-13 19:28N 49°37' W 000°17'0 0.0
2014-Oct-13 18:30N 49°37' W 000°17'0 0.0
2014-Oct-13 17:33N 49°37' W 000°17'0 0.0
2014-Oct-13 16:14N 49°37' W 000°17'0 0.0
2014-Oct-13 15:32N 49°37' W 000°17'0 0.0
2014-Oct-13 14:28N 49°37' W 000°17'0 0.0
2014-Oct-13 13:31N 49°37' W 000°17'0 0.0
2014-Oct-13 12:28N 49°37' W 000°17'0 0.0
2014-Oct-13 11:33N 49°37' W 000°17'0 0.0
2014-Oct-13 10:30N 49°37' W 000°17'0 0.0
2014-Oct-13 09:32N 49°37' W 000°17'0 0.1
2014-Oct-13 08:29N 49°37' W 000°17'0 0.1
2014-Oct-13 07:31N 49°37' W 000°17'0 0.1
2014-Oct-13 06:31N 49°37' W 000°17'0 0.0
2014-Oct-13 05:28N 49°37' W 000°17'0 0.0
2014-Oct-13 04:30N 49°37' W 000°17'0 0.1
2014-Oct-13 03:30N 49°37' W 000°17'0 0.1
2014-Oct-13 02:32N 49°37' W 000°17'0 0.0
2014-Oct-13 01:32N 49°37' W 000°17'0 0.1
2014-Oct-13 00:22N 49°37' W 000°17'0 0.0
2014-Oct-12 23:28N 49°37' W 000°17'0 0.2
2014-Oct-12 22:34N 49°37' W 000°17'0 0.1
2014-Oct-12 21:33N 49°37' W 000°17'0 0.2
2014-Oct-12 20:33N 49°37' W 000°17'0 0.1
2014-Oct-12 19:32N 49°37' W 000°17'0 0.0
2014-Oct-12 18:32N 49°37' W 000°17'0 0.0
2014-Oct-12 17:31N 49°37' W 000°17'0 0.0
2014-Oct-12 16:31N 49°37' W 000°17'0 0.0
2014-Oct-12 15:31N 49°37' W 000°17'0 0.0
2014-Oct-12 14:33N 49°37' W 000°17'0 0.0
2014-Oct-12 13:33N 49°37' W 000°17'0 0.2
2014-Oct-12 12:32N 49°37' W 000°17'0 0.0
2014-Oct-12 11:32N 49°37' W 000°17'0 0.2
2014-Oct-12 10:33N 49°37' W 000°17'0 0.0
2014-Oct-12 09:28N 49°37' W 000°17'0 0.0
2014-Oct-12 08:33N 49°37' W 000°17'0 0.1
2014-Oct-12 07:30N 49°37' W 000°17'0 0.1
2014-Oct-12 06:33N 49°37' W 000°17'8 8.0
2014-Oct-12 05:33N 49°39' W 000°29'11 9.4
2014-Oct-12 04:22N 49°46' W 000°43'  
Track history (hours):
 
Tides and Currents Weather Stations Pressure Air Temp Water Temp Dewpoint Dewpoint Depression Visibility Wind Speed Wind Dir Waves Ship Positions

Zaliv Vostok

Last reported at 2014-Oct-21 14:34 UTC. Time now 2014-Oct-21 15:19 UTC.
Position N 57°59' E 009°58'.

Length 243 m; draft 8.2 m.

Type: Tanker. MMSI: 636014127.

Date/timePositionNaut miles runAvg speedWind from/ knotsBaromVisibWave heightAir tempDewpointWater temp
2014-Oct-21 14:34N 57°59' E 009°58'1110.8
2014-Oct-21 13:32N 57°58' E 009°37'1311.9
2014-Oct-21 12:28N 57°50' E 009°18'1415.1
2014-Oct-21 11:32N 57°40' E 008°60'1313.2
2014-Oct-21 10:33N 57°33' E 008°40'1311.1
2014-Oct-21 09:22N 57°25' E 008°20'193 9.6
2014-Oct-20 13:20N 54°35' E 005°38'7 8.9
2014-Oct-20 12:33N 54°29' E 005°33'9 8.8
2014-Oct-20 11:32N 54°21' E 005°25'9 9.4
2014-Oct-20 10:33N 54°14' E 005°14'10 9.6
2014-Oct-20 09:33N 54°08' E 005°01'10 9.7
2014-Oct-20 08:33N 54°02' E 004°49'163 9.6
2014-Oct-19 15:33N 51°42' E 002°31'1010.2
2014-Oct-19 14:33N 51°34' E 002°21'1110.6
2014-Oct-19 13:33N 51°25' E 002°11'1010.4
2014-Oct-19 12:33N 51°15' E 002°06'1111.4
2014-Oct-19 11:34N 51°09' E 001°52'1211.8
2014-Oct-19 10:33N 51°00' E 001°38'1212.2
2014-Oct-19 09:33N 50°51' E 001°26'9410.4
2014-Oct-19 00:33N 49°51' W 000°27'1010.2
2014-Oct-18 23:33N 49°42' W 000°19'1211.7
2014-Oct-18 22:33N 49°34' W 000°07'1110.8
2014-Oct-18 21:33N 49°28' E 000°08'0 0.1
2014-Oct-18 20:33N 49°28' E 000°08'0 0.0
2014-Oct-18 19:32N 49°28' E 000°08'0 0.0
2014-Oct-18 18:32N 49°28' E 000°08'0 0.0
2014-Oct-18 17:32N 49°28' E 000°08'0 0.0
2014-Oct-18 16:31N 49°28' E 000°08'0 0.0
2014-Oct-18 15:31N 49°28' E 000°08'0 0.0
2014-Oct-18 14:33N 49°28' E 000°08'0 0.0
2014-Oct-18 13:33N 49°28' E 000°08'0 0.0
2014-Oct-18 12:32N 49°28' E 000°08'0 0.0
2014-Oct-18 11:32N 49°28' E 000°08'0 0.0
2014-Oct-18 10:32N 49°28' E 000°08'0 0.0
2014-Oct-18 09:31N 49°28' E 000°08'0 0.0
2014-Oct-18 08:31N 49°28' E 000°08'0 0.0
2014-Oct-18 07:33N 49°28' E 000°08'0 0.0
2014-Oct-18 06:33N 49°28' E 000°08'0 0.0
2014-Oct-18 05:32N 49°28' E 000°08'0 0.0
2014-Oct-18 04:32N 49°28' E 000°08'0 0.0
2014-Oct-18 03:31N 49°28' E 000°08'0 0.0
2014-Oct-18 02:31N 49°28' E 000°08'0 0.0
2014-Oct-18 01:31N 49°28' E 000°08'0 0.0
2014-Oct-18 00:33N 49°28' E 000°08'0 0.0
2014-Oct-17 23:33N 49°28' E 000°08'0 0.0
2014-Oct-17 22:32N 49°28' E 000°08'0 0.0
2014-Oct-17 21:32N 49°28' E 000°08'0 0.0
2014-Oct-17 20:31N 49°28' E 000°08'0 0.0
2014-Oct-17 19:31N 49°28' E 000°08'0 0.0
2014-Oct-17 18:31N 49°28' E 000°08'0 0.0
2014-Oct-17 17:33N 49°28' E 000°08'0 0.0
2014-Oct-17 16:33N 49°28' E 000°08'0 0.0
2014-Oct-17 15:32N 49°28' E 000°08'0 0.0
2014-Oct-17 14:32N 49°28' E 000°08'0 0.0
2014-Oct-17 13:28N 49°28' E 000°08'0 0.0
2014-Oct-17 12:31N 49°28' E 000°08'0 0.0
2014-Oct-17 11:31N 49°28' E 000°08'0 0.0
2014-Oct-17 10:33N 49°28' E 000°08'0 0.0
2014-Oct-17 09:33N 49°28' E 000°08'0 0.0
2014-Oct-17 08:32N 49°28' E 000°08'0 0.0
2014-Oct-17 07:32N 49°28' E 000°08'0 0.0
2014-Oct-17 06:31N 49°28' E 000°08'0 0.0
2014-Oct-17 05:31N 49°28' E 000°08'0 0.0
2014-Oct-17 04:31N 49°28' E 000°08'0 0.0
2014-Oct-17 03:33N 49°28' E 000°08'0 0.0
2014-Oct-17 02:33N 49°28' E 000°08'0 0.0
2014-Oct-17 01:32N 49°28' E 000°08'0 0.0
2014-Oct-17 00:32N 49°28' E 000°08'0 0.0
2014-Oct-16 23:31N 49°28' E 000°08'0 0.0
2014-Oct-16 22:31N 49°28' E 000°08'0 0.0
2014-Oct-16 21:31N 49°28' E 000°08'0 0.0
2014-Oct-16 20:33N 49°28' E 000°08'0 0.0
2014-Oct-16 19:33N 49°28' E 000°08'0 0.0
2014-Oct-16 18:32N 49°28' E 000°08'0 0.0
2014-Oct-16 17:32N 49°28' E 000°08'0 0.0
2014-Oct-16 16:31N 49°28' E 000°08'0 0.0
2014-Oct-16 15:31N 49°28' E 000°08'0 0.0
2014-Oct-16 14:33N 49°28' E 000°08'0 0.0
2014-Oct-16 13:30N 49°28' E 000°08'0 0.0
2014-Oct-16 12:33N 49°28' E 000°08'0 0.0
2014-Oct-16 11:32N 49°28' E 000°08'0 0.0
2014-Oct-16 10:32N 49°28' E 000°08'0 0.0
2014-Oct-16 09:31N 49°28' E 000°08'0 0.0
2014-Oct-16 08:31N 49°28' E 000°08'0 0.0
2014-Oct-16 07:30N 49°28' E 000°08'0 0.0
2014-Oct-16 06:33N 49°28' E 000°08'0 0.0
2014-Oct-16 05:33N 49°28' E 000°08'0 0.0
2014-Oct-16 04:32N 49°28' E 000°08'0 0.0
2014-Oct-16 03:32N 49°28' E 000°08'0 0.0
2014-Oct-16 02:31N 49°28' E 000°08'0 0.0
2014-Oct-16 01:31N 49°28' E 000°08'0 0.0
2014-Oct-16 00:33N 49°28' E 000°08'0 0.0
2014-Oct-15 23:33N 49°28' E 000°08'0 0.0
2014-Oct-15 22:33N 49°28' E 000°08'0 0.0
2014-Oct-15 21:32N 49°28' E 000°08'0 0.0
2014-Oct-15 20:32N 49°28' E 000°08'0 0.0
2014-Oct-15 19:31N 49°28' E 000°08'0 0.0
2014-Oct-15 18:31N 49°28' E 000°08'0 0.0
2014-Oct-15 17:33N 49°28' E 000°08'0 0.0
2014-Oct-15 16:33N 49°28' E 000°08'0 0.0
2014-Oct-15 15:33N 49°28' E 000°08'0 0.0
2014-Oct-15 14:32N 49°28' E 000°08'0 0.0
2014-Oct-15 13:34N 49°28' E 000°08'4 4.0
2014-Oct-15 12:34N 49°30' E 000°02'1010.0
2014-Oct-15 11:33N 49°34' W 000°12'4 4.4
2014-Oct-15 10:34N 49°37' W 000°17'0 0.2
2014-Oct-15 09:29N 49°37' W 000°17'0 0.0
2014-Oct-15 08:22N 49°37' W 000°17'0 0.0
2014-Oct-15 07:31N 49°37' W 000°17'0 0.0
2014-Oct-15 06:31N 49°37' W 000°17'0 0.0
2014-Oct-15 05:27N 49°37' W 000°17'0 0.0
2014-Oct-15 04:33N 49°37' W 000°17'0 0.0
2014-Oct-15 03:32N 49°37' W 000°17'0 0.1
2014-Oct-15 02:32N 49°37' W 000°17'0 0.0
2014-Oct-15 01:32N 49°37' W 000°17'0 0.0
2014-Oct-15 00:28N 49°37' W 000°17'0 0.0
2014-Oct-14 23:28N 49°37' W 000°17'0 0.0
2014-Oct-14 22:33N 49°37' W 000°17'0 0.0
2014-Oct-14 21:33N 49°37' W 000°17'0 0.1
2014-Oct-14 20:32N 49°37' W 000°17'0 0.0
2014-Oct-14 19:32N 49°37' W 000°17'0 0.0
2014-Oct-14 18:32N 49°37' W 000°17'0 0.1
2014-Oct-14 17:31N 49°37' W 000°17'0 0.0
2014-Oct-14 16:31N 49°37' W 000°17'0 0.1
2014-Oct-14 15:33N 49°37' W 000°17'0 0.0
2014-Oct-14 14:27N 49°37' W 000°17'0 0.0
2014-Oct-14 13:32N 49°37' W 000°17'0 0.0
2014-Oct-14 12:26N 49°37' W 000°17'0 0.0
2014-Oct-14 11:25N 49°37' W 000°17'0 0.1
2014-Oct-14 10:31N 49°37' W 000°17'0 0.0
2014-Oct-14 09:28N 49°37' W 000°17'0 0.0
2014-Oct-14 08:33N 49°37' W 000°17'0 0.1
2014-Oct-14 07:33N 49°37' W 000°17'0 0.1
2014-Oct-14 06:32N 49°37' W 000°17'0 0.0
2014-Oct-14 05:32N 49°37' W 000°17'0 0.1
2014-Oct-14 04:16N 49°37' W 000°17'0 0.0
2014-Oct-14 03:28N 49°37' W 000°17'0 0.0
2014-Oct-14 02:31N 49°37' W 000°17'0 0.0
2014-Oct-14 01:33N 49°37' W 000°17'0 0.0
2014-Oct-14 00:33N 49°37' W 000°17'0 0.0
2014-Oct-13 23:26N 49°37' W 000°17'0 0.1
2014-Oct-13 22:32N 49°37' W 000°17'0 0.0
2014-Oct-13 21:31N 49°37' W 000°17'0 0.0
2014-Oct-13 20:31N 49°37' W 000°17'0 0.0
2014-Oct-13 19:28N 49°37' W 000°17'0 0.0
2014-Oct-13 18:30N 49°37' W 000°17'0 0.0
2014-Oct-13 17:33N 49°37' W 000°17'0 0.0
2014-Oct-13 16:14N 49°37' W 000°17'0 0.0
2014-Oct-13 15:32N 49°37' W 000°17'0 0.0
2014-Oct-13 14:28N 49°37' W 000°17'0 0.0
2014-Oct-13 13:31N 49°37' W 000°17'0 0.0
2014-Oct-13 12:28N 49°37' W 000°17'0 0.0
2014-Oct-13 11:33N 49°37' W 000°17'0 0.0
2014-Oct-13 10:30N 49°37' W 000°17'0 0.0
2014-Oct-13 09:32N 49°37' W 000°17'0 0.1
2014-Oct-13 08:29N 49°37' W 000°17'0 0.1
2014-Oct-13 07:31N 49°37' W 000°17'0 0.1
2014-Oct-13 06:31N 49°37' W 000°17'0 0.0
2014-Oct-13 05:28N 49°37' W 000°17'0 0.0
2014-Oct-13 04:30N 49°37' W 000°17'0 0.1
2014-Oct-13 03:30N 49°37' W 000°17'0 0.1
2014-Oct-13 02:32N 49°37' W 000°17'0 0.0
2014-Oct-13 01:32N 49°37' W 000°17'0 0.1
2014-Oct-13 00:22N 49°37' W 000°17'0 0.0
2014-Oct-12 23:28N 49°37' W 000°17'0 0.2
2014-Oct-12 22:34N 49°37' W 000°17'0 0.1
2014-Oct-12 21:33N 49°37' W 000°17'0 0.2
2014-Oct-12 20:33N 49°37' W 000°17'0 0.1
2014-Oct-12 19:32N 49°37' W 000°17'0 0.0
2014-Oct-12 18:32N 49°37' W 000°17'0 0.0
2014-Oct-12 17:31N 49°37' W 000°17'0 0.0
2014-Oct-12 16:31N 49°37' W 000°17'0 0.0
2014-Oct-12 15:31N 49°37' W 000°17'0 0.0
2014-Oct-12 14:33N 49°37' W 000°17'0 0.0
2014-Oct-12 13:33N 49°37' W 000°17'0 0.2
2014-Oct-12 12:32N 49°37' W 000°17'0 0.0
2014-Oct-12 11:32N 49°37' W 000°17'0 0.2
2014-Oct-12 10:33N 49°37' W 000°17'0 0.0
2014-Oct-12 09:28N 49°37' W 000°17'0 0.0
2014-Oct-12 08:33N 49°37' W 000°17'0 0.1
2014-Oct-12 07:30N 49°37' W 000°17'0 0.1
2014-Oct-12 06:33N 49°37' W 000°17'8 8.0
2014-Oct-12 05:33N 49°39' W 000°29'11 9.4
2014-Oct-12 04:22N 49°46' W 000°43'  

Dump ship's entire track history